Regional Weather Roundup
Issued by NWS Charleston, WV

Home | Current Version | Previous Version | Text Only | Print | Product List | Glossary On
Versions: 1 2 3 4 5 6 7 8 9 10 11 12 13 14 15 16 17 18 19 20 21 22 23 24 25 26 27 28 29 30 31 32 33 34 35 36 37 38 39 40 41 42 43 44 45 46 47 48 49 50
000
ASUS41 KRLX 271710
RWRRLX
West Virginia Regional Weather Roundup
National Weather Service Charleston WV
1200 PM EST FRI FEB 27 2015

Note: "fair" indicates few or no clouds below 12,000 feet with no
significant weather and/or obstructions to visibility.

WVZ003-271800-
Northern Panhandle of West Virginia

CITY           SKY/WX    TMP DP  RH WIND       PRES   REMARKS
WHEELING       SUNNY     12  -2  53 W3        30.50R
$$

WVZ009-271800-
Northwest West Virginia

CITY           SKY/WX    TMP DP  RH WIND       PRES   REMARKS
PARKERSBURG    CLOUDY    18   2  49 NW5       30.59R
$$

WVZ006-271800-
Western West Virginia

CITY           SKY/WX    TMP DP  RH WIND       PRES   REMARKS
HUNTINGTON     CLOUDY    16   5  62 VRB5      30.56R WCI   9
$$

WVZ015-271800-
West Central West Virginia

CITY           SKY/WX    TMP DP  RH WIND       PRES   REMARKS
CHARLESTON     MOSUNNY   20   6  55 VRB3      30.53R
$$

WVZ022-031-271800-
North Central West Virginia

CITY           SKY/WX    TMP DP  RH WIND       PRES   REMARKS
CLARKSBURG     PTSUNNY   18   3  52 NW3       30.48R
MORGANTOWN       N/A    N/A N/A N/A VRB3      30.48S
$$

WVZ025-035-042-045-271800-
Southern West Virginia

CITY           SKY/WX    TMP DP  RH WIND       PRES   REMARKS
BECKLEY        CLOUDY    17   8  67 N8        30.36R WCI   7
LOGAN          CLOUDY    16   9  73 CALM      30.44R
BLUEFIELD      FLURRIES  20   9  62 W13       30.34R WCI   7
LEWISBURG      SUNNY     26   9  47 W8        30.36R
$$

WVZ047-271800-
Northern Mountains of West Virginia

CITY           SKY/WX    TMP DP  RH WIND       PRES   REMARKS
ELKINS         CLOUDY   N/A N/A N/A NW10      30.39R
$$

WVZ052-271800-
Eastern Panhandle of West Virginia

CITY           SKY/WX    TMP DP  RH WIND       PRES   REMARKS
MARTINSBURG    SUNNY     26   7  44 NW7       30.45R
PETERSBURG     SUNNY     28   6  39 W7        30.42S
$$


USA.gov is the U.S. government's official web portal to all federal, state and local government web resources and services.